Location: Bijele Vode
(45.2833°N, 16.2000°E)
Time: 01:20:22
(UTC+00:00)

CENTAUR R/B - Pass Details

Date: 18 September 2020
Orbit: 755 x 1433 km, 63.4° (Epoch: 02 October)

Event Time Altitude Azimuth Distance (km) Brightness Sun altitude
Rises 19:25:14 0° 321° (NW) 4,135 6.9 -25.1°
Reaches altitude 10° 19:27:52 10° 323° (NW) 3,250 6.1 -25.5°
Maximum altitude 19:35:59 83° 51° (NE) 1,388 3.1 -26.8°
Enters shadow 19:38:32 52° 133° (SE) 1,695 3.3 -27.1°
